Time,TemperatureF,DewpointF,PressureIn,WindDirection,WindDirectionDegrees,WindSpeedMPH,WindSpeedGustMPH,Humidity,HourlyPrecipIn,Conditions,Clouds,dailyrainin,SoftwareType,DateUTC
2013-06-12 00:00:00,47.0,44.2,30.10,ENE,75,0.0,2.0,90,0.00,,---,0.00,VWS V14.01,2013-06-12 07:00:00,
2013-06-12 00:02:00,46.9,44.1,30.10,ENE,75,0.0,0.0,90,0.00,,---,0.00,VWS V14.01,2013-06-12 07:02:00,
2013-06-12 00:07:00,46.8,44.0,30.10,ENE,75,0.0,2.0,90,0.00,,---,0.00,VWS V14.01,2013-06-12 07:07:00,
2013-06-12 00:12:00,46.7,43.9,30.10,ENE,75,0.0,2.0,90,0.00,,---,0.00,VWS V14.01,2013-06-12 07:12:00,
2013-06-12 00:15:00,46.6,43.8,30.10,ENE,75,0.0,2.0,90,0.00,,---,0.00,VWS V14.01,2013-06-12 07:15:00,
2013-06-12 00:17:00,46.5,43.7,30.10,ENE,75,0.0,0.0,90,0.00,,---,0.00,VWS V14.01,2013-06-12 07:17:00,
2013-06-12 00:22:00,46.5,43.7,30.10,ENE,75,0.0,0.0,90,0.00,,---,0.00,VWS V14.01,2013-06-12 07:22:00,
2013-06-12 00:27:00,46.5,44.0,30.11,ENE,75,0.0,1.0,91,0.00,,---,0.00,VWS V14.01,2013-06-12 07:27:00,
2013-06-12 00:30:00,46.4,43.9,30.11,ENE,75,1.0,1.0,91,0.00,,---,0.00,VWS V14.01,2013-06-12 07:30:00,
2013-06-12 00:32:00,46.4,43.9,30.11,ENE,75,1.0,1.0,91,0.00,,---,0.00,VWS V14.01,2013-06-12 07:32:00,
2013-06-12 00:37:00,46.4,43.9,30.11,ENE,75,1.0,1.0,91,0.00,,---,0.00,VWS V14.01,2013-06-12 07:37:00,
2013-06-12 00:42:00,46.3,43.8,30.11,ENE,75,0.0,1.0,91,0.00,,---,0.00,VWS V14.01,2013-06-12 07:42:00,
2013-06-12 00:45:00,46.3,43.8,30.11,ENE,75,0.0,1.0,91,0.00,,---,0.00,VWS V14.01,2013-06-12 07:45:00,
2013-06-12 00:47:00,46.3,43.8,30.11,ENE,75,0.0,0.0,91,0.00,,---,0.00,VWS V14.01,2013-06-12 07:47:00,
2013-06-12 00:52:00,46.3,44.1,30.11,ENE,75,0.0,0.0,92,0.00,,---,0.00,VWS V14.01,2013-06-12 07:52:00,
2013-06-12 00:57:00,46.3,43.8,30.11,ENE,75,0.0,0.0,91,0.00,,---,0.00,VWS V14.01,2013-06-12 07:57:00,
2013-06-12 01:00:00,46.4,44.2,30.11,ENE,75,1.0,1.0,92,0.00,,---,0.00,VWS V14.01,2013-06-12 08:00:00,
2013-06-12 01:02:00,46.4,44.2,30.11,ENE,75,1.0,2.0,92,0.00,,---,0.00,VWS V14.01,2013-06-12 08:02:00,
2013-06-12 01:07:00,46.2,43.7,30.11,ENE,75,1.0,2.0,91,0.00,,---,0.00,VWS V14.01,2013-06-12 08:07:00,
2013-06-12 01:12:00,46.1,43.9,30.11,ENE,75,1.0,2.0,92,0.00,,---,0.00,VWS V14.01,2013-06-12 08:12:00,
2013-06-12 01:15:00,46.2,44.0,30.11,ENE,75,0.0,2.0,92,0.00,,---,0.00,VWS V14.01,2013-06-12 08:15:00,
2013-06-12 01:17:00,46.2,44.0,30.11,ENE,75,1.0,1.0,92,0.00,,---,0.00,VWS V14.01,2013-06-12 08:17:00,
2013-06-12 01:22:00,46.3,44.1,30.11,ENE,75,0.0,1.0,92,0.00,,---,0.00,VWS V14.01,2013-06-12 08:22:00,
2013-06-12 01:27:00,46.3,44.1,30.11,ENE,75,0.0,1.0,92,0.00,,---,0.00,VWS V14.01,2013-06-12 08:27:00,
2013-06-12 01:30:00,46.3,44.1,30.11,ENE,75,0.0,1.0,92,0.00,,---,0.00,VWS V14.01,2013-06-12 08:30:00,
2013-06-12 01:32:00,46.3,44.1,30.11,ENE,75,0.0,0.0,92,0.00,,---,0.00,VWS V14.01,2013-06-12 08:32:00,
2013-06-12 01:37:00,46.4,44.2,30.11,ENE,75,1.0,1.0,92,0.00,,---,0.00,VWS V14.01,2013-06-12 08:37:00,
2013-06-12 01:42:00,46.3,44.1,30.11,ENE,75,1.0,1.0,92,0.00,,---,0.00,VWS V14.01,2013-06-12 08:42:00,
2013-06-12 01:45:00,46.2,44.0,30.11,ENE,75,1.0,2.0,92,0.00,,---,0.00,VWS V14.01,2013-06-12 08:45:00,
2013-06-12 01:47:00,46.2,44.0,30.11,ENE,75,1.0,1.0,92,0.00,,---,0.00,VWS V14.01,2013-06-12 08:47:00,
2013-06-12 01:52:00,46.2,44.0,30.11,ENE,75,1.0,2.0,92,0.00,,---,0.00,VWS V14.01,2013-06-12 08:52:00,
2013-06-12 01:57:00,46.1,43.9,30.11,ENE,75,0.0,2.0,92,0.00,,---,0.00,VWS V14.01,2013-06-12 08:57:00,
2013-06-12 02:00:00,46.1,43.9,30.11,ENE,75,0.0,2.0,92,0.00,,---,0.00,VWS V14.01,2013-06-12 09:00:00,
2013-06-12 02:02:00,46.1,43.9,30.11,ENE,75,0.0,0.0,92,0.00,,---,0.00,VWS V14.01,2013-06-12 09:02:00,
2013-06-12 02:07:00,46.1,43.9,30.11,ENE,75,1.0,2.0,92,0.00,,---,0.00,VWS V14.01,2013-06-12 09:07:00,
2013-06-12 02:12:00,46.2,44.3,30.11,ENE,75,0.0,2.0,93,0.00,,---,0.00,VWS V14.01,2013-06-12 09:12:00,
2013-06-12 02:15:00,46.3,44.4,30.11,ENE,75,0.0,2.0,93,0.00,,---,0.00,VWS V14.01,2013-06-12 09:15:00,
2013-06-12 02:17:00,46.3,44.4,30.11,ENE,75,0.0,0.0,93,0.00,,---,0.00,VWS V14.01,2013-06-12 09:17:00,
2013-06-12 02:22:00,46.4,44.5,30.12,ENE,75,0.0,0.0,93,0.00,,---,0.00,VWS V14.01,2013-06-12 09:22:00,
2013-06-12 02:27:00,46.4,44.2,30.11,ENE,75,0.0,0.0,92,0.00,,---,0.00,VWS V14.01,2013-06-12 09:27:00,
2013-06-12 02:30:00,46.4,44.5,30.11,ENE,75,0.0,0.0,93,0.00,,---,0.00,VWS V14.01,2013-06-12 09:30:00,
2013-06-12 02:32:00,46.5,44.6,30.11,ENE,75,0.0,0.0,93,0.00,,---,0.00,VWS V14.01,2013-06-12 09:32:00,
2013-06-12 02:37:00,46.5,44.6,30.11,ENE,75,0.0,0.0,93,0.00,,---,0.00,VWS V14.01,2013-06-12 09:37:00,
2013-06-12 02:42:00,46.7,44.8,30.11,ENE,75,0.0,0.0,93,0.00,,---,0.00,VWS V14.01,2013-06-12 09:42:00,
2013-06-12 02:45:00,46.8,44.9,30.11,ENE,75,0.0,0.0,93,0.00,,---,0.00,VWS V14.01,2013-06-12 09:45:00,
2013-06-12 02:47:00,46.9,45.0,30.11,ENE,75,0.0,0.0,93,0.00,,---,0.00,VWS V14.01,2013-06-12 09:47:00,
2013-06-12 02:52:00,47.0,45.1,30.11,ENE,75,0.0,0.0,93,0.00,,---,0.00,VWS V14.01,2013-06-12 09:52:00,
2013-06-12 02:57:00,47.0,44.8,30.11,ENE,75,0.0,0.0,92,0.00,,---,0.00,VWS V14.01,2013-06-12 09:57:00,
2013-06-12 03:00:00,47.0,44.8,30.11,ENE,75,0.0,0.0,92,0.00,,---,0.00,VWS V14.01,2013-06-12 10:00:00,
2013-06-12 03:02:00,47.0,44.8,30.11,ENE,75,0.0,0.0,92,0.00,,---,0.00,VWS V14.01,2013-06-12 10:02:00,
2013-06-12 03:07:00,47.0,44.8,30.11,ENE,75,1.0,1.0,92,0.00,,---,0.00,VWS V14.01,2013-06-12 10:07:00,
2013-06-12 03:12:00,47.1,44.9,30.11,ENE,75,0.0,2.0,92,0.00,,---,0.00,VWS V14.01,2013-06-12 10:12:00,
2013-06-12 03:15:00,47.2,45.0,30.11,ENE,75,0.0,2.0,92,0.00,,---,0.00,VWS V14.01,2013-06-12 10:15:00,
2013-06-12 03:17:00,47.1,44.9,30.11,ENE,75,0.0,0.0,92,0.00,,---,0.00,VWS V14.01,2013-06-12 10:17:00,
2013-06-12 03:22:00,47.2,45.0,30.11,ENE,75,1.0,1.0,92,0.00,,---,0.00,VWS V14.01,2013-06-12 10:22:00,
2013-06-12 03:30:00,47.1,44.9,30.11,ENE,68,0.0,1.0,92,0.00,,---,0.00,VWS V14.01,2013-06-12 10:30:00,
2013-06-12 03:45:00,47.0,44.8,30.11,ENE,68,0.0,2.0,92,0.00,,---,0.00,VWS V14.01,2013-06-12 10:45:00,
2013-06-12 04:00:00,47.0,44.8,30.12,ENE,68,0.0,0.0,92,0.00,,---,0.00,VWS V14.01,2013-06-12 11:00:00,
2013-06-12 04:15:00,47.0,44.8,30.12,ENE,68,0.0,1.0,92,0.00,,---,0.00,VWS V14.01,2013-06-12 11:15:00,
2013-06-12 04:30:00,46.9,44.7,30.12,ENE,68,0.0,1.0,92,0.00,,---,0.00,VWS V14.01,2013-06-12 11:30:00,
2013-06-12 04:45:00,46.6,44.7,30.12,ENE,68,0.0,1.0,93,0.00,,---,0.00,VWS V14.01,2013-06-12 11:45:00,
2013-06-12 05:00:00,46.6,44.7,30.12,ENE,68,0.0,1.0,93,0.00,,---,0.00,VWS V14.01,2013-06-12 12:00:00,
2013-06-12 05:15:00,46.1,44.2,30.12,ENE,68,0.0,1.0,93,0.00,,---,0.00,VWS V14.01,2013-06-12 12:15:00,
2013-06-12 05:30:00,45.8,43.9,30.12,ENE,68,0.0,0.0,93,0.00,,---,0.00,VWS V14.01,2013-06-12 12:30:00,
2013-06-12 05:45:00,45.7,43.8,30.12,ENE,68,0.0,2.0,93,0.00,,---,0.00,VWS V14.01,2013-06-12 12:45:00,
2013-06-12 06:00:00,46.0,44.4,30.12,ENE,68,0.0,1.0,94,0.00,,---,0.00,VWS V14.01,2013-06-12 13:00:00,
2013-06-12 06:15:00,46.4,45.0,30.13,ENE,68,0.0,2.0,95,0.00,,---,0.00,VWS V14.01,2013-06-12 13:15:00,
2013-06-12 06:30:00,47.4,46.0,30.13,East,90,0.0,2.0,95,0.00,,---,0.00,VWS V14.01,2013-06-12 13:30:00,
2013-06-12 06:45:00,48.0,46.4,30.13,East,90,0.0,2.0,94,0.00,,---,0.00,VWS V14.01,2013-06-12 13:45:00,
2013-06-12 07:00:00,48.6,46.7,30.13,SW,225,0.0,3.0,93,0.00,,---,0.00,VWS V14.01,2013-06-12 14:00:00,
2013-06-12 07:15:00,49.2,47.3,30.13,WNW,292,0.0,4.0,93,0.00,,---,0.00,VWS V14.01,2013-06-12 14:15:00,
2013-06-12 07:30:00,50.5,47.7,30.13,SSW,202,1.0,5.0,90,0.00,,---,0.00,VWS V14.01,2013-06-12 14:30:00,
2013-06-12 07:45:00,51.4,48.0,30.13,East,90,1.0,5.0,88,0.00,,---,0.00,VWS V14.01,2013-06-12 14:45:00,
2013-06-12 08:00:00,51.3,47.6,30.13,East,90,1.0,5.0,87,0.00,,---,0.00,VWS V14.01,2013-06-12 15:00:00,
2013-06-12 08:15:00,51.1,47.7,30.13,NE,45,0.0,3.0,88,0.00,,---,0.00,VWS V14.01,2013-06-12 15:15:00,
2013-06-12 08:30:00,52.4,48.3,30.13,East,90,1.0,4.0,86,0.00,,---,0.00,VWS V14.01,2013-06-12 15:30:00,
2013-06-12 08:45:00,53.1,48.1,30.13,SW,225,2.0,7.0,83,0.00,,---,0.00,VWS V14.01,2013-06-12 15:45:00,
2013-06-12 09:00:00,54.5,48.1,30.13,SW,225,2.0,6.0,79,0.00,,---,0.00,VWS V14.01,2013-06-12 16:00:00,
2013-06-12 09:15:00,55.5,49.1,30.12,West,270,2.0,7.0,79,0.00,,---,0.00,VWS V14.01,2013-06-12 16:15:00,
2013-06-12 09:30:00,56.1,48.3,30.12,SSW,202,2.0,9.0,75,0.00,,---,0.00,VWS V14.01,2013-06-12 16:30:00,
2013-06-12 09:45:00,57.1,48.2,30.13,South,180,1.0,5.0,72,0.00,,---,0.00,VWS V14.01,2013-06-12 16:45:00,
2013-06-12 10:00:00,57.6,48.3,30.13,SW,225,3.0,7.0,71,0.00,,---,0.00,VWS V14.01,2013-06-12 17:00:00,
2013-06-12 10:15:00,57.9,48.2,30.13,SSW,202,3.0,7.0,70,0.00,,---,0.00,VWS V14.01,2013-06-12 17:15:00,
2013-06-12 10:30:00,58.3,48.2,30.13,SW,225,3.0,9.0,69,0.00,,---,0.00,VWS V14.01,2013-06-12 17:30:00,
2013-06-12 10:45:00,58.9,48.4,30.12,ESE,112,2.0,9.0,68,0.00,,---,0.00,VWS V14.01,2013-06-12 17:45:00,
2013-06-12 11:00:00,59.8,48.4,30.12,ESE,112,2.0,9.0,66,0.00,,---,0.00,VWS V14.01,2013-06-12 18:00:00,
2013-06-12 11:15:00,60.8,49.0,30.12,SE,135,2.0,8.0,65,0.00,,---,0.00,VWS V14.01,2013-06-12 18:15:00,
2013-06-12 11:30:00,60.9,47.4,30.12,East,90,3.0,11.0,61,0.00,,---,0.00,VWS V14.01,2013-06-12 18:30:00,
2013-06-12 11:45:00,61.1,47.1,30.12,ESE,112,3.0,10.0,60,0.00,,---,0.00,VWS V14.01,2013-06-12 18:45:00,
2013-06-12 12:00:00,61.6,47.6,30.12,SE,135,3.0,9.0,60,0.00,,---,0.00,VWS V14.01,2013-06-12 19:00:00,
2013-06-12 12:15:00,62.3,47.3,30.12,ESE,112,3.0,10.0,58,0.00,,---,0.00,VWS V14.01,2013-06-12 19:15:00,
2013-06-12 12:30:00,62.5,47.5,30.12,SE,135,3.0,9.0,58,0.00,,---,0.00,VWS V14.01,2013-06-12 19:30:00,
2013-06-12 12:45:00,62.7,46.3,30.11,ESE,112,3.0,11.0,55,0.00,,---,0.00,VWS V14.01,2013-06-12 19:45:00,
2013-06-12 13:00:00,62.9,46.5,30.11,SE,135,4.0,10.0,55,0.00,,---,0.00,VWS V14.01,2013-06-12 20:00:00,
2013-06-12 13:15:00,62.1,45.8,30.12,SSE,158,2.0,9.0,55,0.00,,---,0.00,VWS V14.01,2013-06-12 20:15:00,
2013-06-12 13:30:00,61.3,46.4,30.12,South,180,2.0,7.0,58,0.00,,---,0.00,VWS V14.01,2013-06-12 20:30:00,
2013-06-12 13:45:00,60.8,46.8,30.12,SSE,158,2.0,7.0,60,0.00,,---,0.00,VWS V14.01,2013-06-12 20:45:00,
2013-06-12 14:00:00,61.4,47.0,30.12,East,90,1.0,5.0,59,0.00,,---,0.00,VWS V14.01,2013-06-12 21:00:00,
2013-06-12 14:15:00,61.8,46.9,30.11,ESE,112,2.0,8.0,58,0.00,,---,0.00,VWS V14.01,2013-06-12 21:15:00,
2013-06-12 14:30:00,61.3,46.4,30.12,WSW,248,3.0,10.0,58,0.00,,---,0.00,VWS V14.01,2013-06-12 21:30:00,
2013-06-12 14:45:00,59.0,46.0,30.13,West,270,3.0,15.0,62,0.00,,---,0.00,VWS V14.01,2013-06-12 21:45:00,
2013-06-12 15:00:00,55.2,48.5,30.13,SSW,202,3.0,7.0,78,0.05,,---,0.05,VWS V14.01,2013-06-12 22:00:00,
2013-06-12 15:15:00,55.3,52.1,30.12,NE,45,2.0,5.0,89,0.09,,---,0.09,VWS V14.01,2013-06-12 22:15:00,
2013-06-12 15:30:00,57.5,54.0,30.12,NNE,22,1.0,6.0,88,0.09,,---,0.09,VWS V14.01,2013-06-12 22:30:00,
2013-06-12 15:45:00,56.9,53.7,30.12,NE,45,1.0,4.0,89,0.09,,---,0.09,VWS V14.01,2013-06-12 22:45:00,
2013-06-12 16:00:00,57.2,52.7,30.12,ENE,68,2.0,4.0,85,0.09,,---,0.09,VWS V14.01,2013-06-12 23:00:00,
2013-06-12 16:15:00,58.7,53.2,30.12,ENE,68,2.0,5.0,82,0.04,,---,0.09,VWS V14.01,2013-06-12 23:15:00,
2013-06-12 16:30:00,59.6,52.7,30.12,ENE,68,2.0,5.0,78,0.00,,---,0.09,VWS V14.01,2013-06-12 23:30:00,
2013-06-12 16:45:00,57.0,52.9,30.12,West,270,3.0,7.0,86,0.01,,---,0.10,VWS V14.01,2013-06-12 23:45:00,
2013-06-12 17:00:00,56.9,52.1,30.12,West,270,1.0,6.0,84,0.01,,---,0.10,VWS V14.01,2013-06-13 00:00:00,
2013-06-12 17:15:00,59.8,50.8,30.12,ENE,68,1.0,4.0,72,0.01,,---,0.10,VWS V14.01,2013-06-13 00:15:00,
2013-06-12 17:30:00,60.3,52.3,30.12,West,270,3.0,7.0,75,0.01,,---,0.10,VWS V14.01,2013-06-13 00:30:00,
2013-06-12 17:45:00,59.7,49.9,30.12,SSW,202,4.0,9.0,70,0.01,,---,0.10,VWS V14.01,2013-06-13 00:45:00,
2013-06-12 18:00:00,58.2,49.6,30.12,SW,225,4.0,10.0,73,0.00,,---,0.10,VWS V14.01,2013-06-13 01:00:00,
2013-06-12 18:15:00,57.8,49.6,30.12,SW,225,3.0,6.0,74,0.00,,---,0.10,VWS V14.01,2013-06-13 01:15:00,
2013-06-12 18:30:00,56.9,48.0,30.12,WSW,248,3.0,8.0,72,0.00,,---,0.10,VWS V14.01,2013-06-13 01:30:00,
2013-06-12 18:45:00,57.0,48.8,30.12,WNW,292,2.0,7.0,74,0.00,,---,0.10,VWS V14.01,2013-06-13 01:45:00,
2013-06-12 19:00:00,57.8,52.0,30.12,WNW,292,0.0,2.0,81,0.00,,---,0.10,VWS V14.01,2013-06-13 02:00:00,
2013-06-12 19:15:00,58.4,51.6,30.13,NNW,338,0.0,2.0,78,0.00,,---,0.10,VWS V14.01,2013-06-13 02:15:00,
2013-06-12 19:30:00,56.3,50.5,30.13,ENE,68,1.0,6.0,81,0.00,,---,0.10,VWS V14.01,2013-06-13 02:30:00,
2013-06-12 19:45:00,54.0,49.9,30.13,ENE,68,4.0,9.0,86,0.00,,---,0.10,VWS V14.01,2013-06-13 02:45:00,
2013-06-12 20:00:00,53.1,49.3,30.13,ENE,68,3.0,8.0,87,0.00,,---,0.10,VWS V14.01,2013-06-13 03:00:00,
2013-06-12 20:15:00,52.6,49.2,30.13,ENE,68,3.0,9.0,88,0.00,,---,0.10,VWS V14.01,2013-06-13 03:15:00,
2013-06-12 20:30:00,52.3,48.9,30.14,NE,45,2.0,7.0,88,0.00,,---,0.10,VWS V14.01,2013-06-13 03:30:00,
2013-06-12 20:45:00,51.9,48.8,30.14,ENE,68,1.0,5.0,89,0.00,,---,0.10,VWS V14.01,2013-06-13 03:45:00,
2013-06-12 21:00:00,51.6,48.5,30.14,East,90,1.0,5.0,89,0.00,,---,0.10,VWS V14.01,2013-06-13 04:00:00,
2013-06-12 21:15:00,51.5,48.1,30.14,ENE,68,3.0,6.0,88,0.00,,---,0.10,VWS V14.01,2013-06-13 04:15:00,
2013-06-12 21:30:00,51.5,48.1,30.14,ENE,68,2.0,5.0,88,0.00,,---,0.10,VWS V14.01,2013-06-13 04:30:00,
2013-06-12 21:45:00,51.4,48.0,30.15,ENE,68,2.0,5.0,88,0.00,,---,0.10,VWS V14.01,2013-06-13 04:45:00,
2013-06-12 22:00:00,51.6,47.9,30.15,ENE,68,1.0,4.0,87,0.00,,---,0.10,VWS V14.01,2013-06-13 05:00:00,
2013-06-12 22:15:00,51.3,48.2,30.15,NE,45,0.0,2.0,89,0.00,,---,0.10,VWS V14.01,2013-06-13 05:15:00,
2013-06-12 22:30:00,51.2,48.1,30.15,NE,45,0.0,0.0,89,0.00,,---,0.10,VWS V14.01,2013-06-13 05:30:00,
2013-06-12 22:45:00,51.4,48.9,30.16,NE,45,0.0,0.0,91,0.00,,---,0.10,VWS V14.01,2013-06-13 05:45:00,
2013-06-12 23:00:00,51.4,48.6,30.16,NE,45,0.0,1.0,90,0.00,,---,0.10,VWS V14.01,2013-06-13 06:00:00,
2013-06-12 23:15:00,51.4,48.3,30.16,ENE,68,0.0,2.0,89,0.00,,---,0.10,VWS V14.01,2013-06-13 06:15:00,
2013-06-12 23:30:00,51.4,48.3,30.16,ENE,68,0.0,2.0,89,0.00,,---,0.10,VWS V14.01,2013-06-13 06:30:00,
2013-06-12 23:45:00,51.2,48.1,30.15,ENE,68,0.0,2.0,89,0.00,,---,0.10,VWS V14.01,2013-06-13 06:45:00,